Sioux City, IA

8:01 PM CST on November 21, 2019 (GMT -0600)
Sioux Gateway

Weather History for KSUX - October, 2019

Change the Weather History Date:

Tuesday, October 22, 2019

  Actual Average Record
Temperature  
Mean Temperature 46 °F 48 °F  
Max Temperature 54 °F 61 °F 85 °F (2003)
Min Temperature 37 °F 36 °F 17 °F (1976)
Degree Days  
Heating Degree Days 20 17  
Month to date heating degree days 341 283  
Since 1 July heating degree days 377 430  
Cooling Degree Days 0 0  
Month to date cooling degree days 0 8  
Year to date cooling degree days 910 869  
Moisture  
Dew Point 31 °F    
Average Humidity 65    
Maximum Humidity 85    
Minimum Humidity 38    
Precipitation  
Precipitation 0.00 in 0.06 in 2.25 in (2008)
Month to date precipitation 2.31 1.68  
Year to date precipitation 30.42 25.18  
Snow  
Snow 0.00 in 0.00 in 0.60 in (2002)
Month to date snowfall T 0.4  
Since 1 July snowfall T 0.4  
Since 1 September snowfall T 0.4  
Snow Depth 0.00 in    
Sea Level Pressure  
Sea Level Pressure 29.82 in    
Wind  
Wind Speed 17 mph ()    
Max Wind Speed 33 mph    
Max Gust Speed 49 mph    
Visibility 10.0 miles    
Events      
T = Trace of Precipitation, MM = Missing Value Source: Averaged Metar Reports

Daily Weather History Graph

Daily Weather History Graph

Search for Another Location

Airport or City:

Astronomy

Oct. 22, 2019 Rise Set
Actual Time 7:46 AM CDT 6:32 PM CDT
Civil Twilight 7:17 AM CDT 7:01 PM CDT
Nautical Twilight 6:45 AM CDT 7:34 PM CDT
Astronomical Twilight 6:12 AM CDT 8:06 PM CDT
Moon 12:47 AM CDT 3:52 PM CDT
Length of Visible Light 11h 43m
Length of Day
10h 46m
Last Quarter, 37% of the Moon is Illuminated
Oct 22
Last Quarter
Oct 27
New
Nov 4
First Quarter
Nov 12
Full
Nov 19
Last Quarter

Hourly Weather History & Observations

Time (CDT) Temp. Windchill Dew Point Humidity Pressure Visibility Wind Dir Wind Speed Gust Speed Precip Events Conditions
12:52 AM 44.1 °F 35.2 °F 37.0 °F 76% 29.69 in 10.0 mi NW 23.0 mph 43.7 mph N/A   Overcast
1:52 AM 43.0 °F 33.5 °F 35.1 °F 74% 29.71 in 10.0 mi NW 24.2 mph 41.4 mph N/A   Overcast
2:40 AM 42.1 °F 31.9 °F 34.0 °F 73% 29.72 in 10.0 mi WNW 26.5 mph 35.7 mph N/A   Overcast
2:52 AM 41.0 °F 30.9 °F 33.1 °F 73% 29.73 in 10.0 mi WNW 24.2 mph 40.3 mph N/A   Overcast
3:52 AM 41.0 °F 31.1 °F 32.0 °F 70% 29.75 in 10.0 mi WNW 23.0 mph 41.4 mph N/A   Mostly Cloudy
4:52 AM 37.9 °F 27.3 °F 30.9 °F 76% 29.77 in 10.0 mi WNW 21.9 mph 29.9 mph N/A   Partly Cloudy
5:52 AM 37.9 °F 27.3 °F 30.0 °F 73% 29.80 in 10.0 mi WNW 21.9 mph 32.2 mph N/A   Clear
6:52 AM 37.0 °F 26.4 °F 28.9 °F 73% 29.82 in 10.0 mi WNW 20.7 mph 32.2 mph N/A   Clear
7:52 AM 37.0 °F 27.4 °F 28.0 °F 70% 29.84 in 10.0 mi WNW 17.3 mph 28.8 mph N/A   Clear
8:52 AM 39.0 °F 29.6 °F 28.9 °F 67% 29.86 in 10.0 mi WNW 18.4 mph 28.8 mph N/A   Clear
9:52 AM 43.0 °F 34.8 °F 30.0 °F 60% 29.87 in 10.0 mi WNW 18.4 mph 31.1 mph N/A   Clear
10:52 AM 46.0 °F 37.4 °F 30.0 °F 54% 29.88 in 10.0 mi NW 25.3 mph 38.0 mph N/A   Clear
11:52 AM 48.0 °F - 28.9 °F 48% 29.89 in 10.0 mi NW 26.5 mph 40.3 mph N/A   Clear
12:52 PM 51.1 °F - 28.9 °F 43% 29.88 in 10.0 mi NW 20.7 mph 36.8 mph N/A   Clear
2:52 PM 54.0 °F - 30.0 °F 40% 29.86 in 10.0 mi NW 20.7 mph 32.2 mph N/A   Partly Cloudy
3:52 PM 54.0 °F - 30.0 °F 40% 29.86 in 10.0 mi WNW 18.4 mph 34.5 mph N/A   Clear
4:52 PM 53.1 °F - 28.9 °F 40% 29.87 in 10.0 mi WNW 17.3 mph 21.9 mph N/A   Partly Cloudy
6:52 PM 48.0 °F - 30.9 °F 52% 29.86 in 10.0 mi Calm Calm - N/A   Clear
7:52 PM 37.9 °F 34.4 °F 33.1 °F 83% 29.87 in 10.0 mi West 4.6 mph - N/A   Clear
8:52 PM 37.9 °F 33.5 °F 33.1 °F 83% 29.87 in 10.0 mi SW 5.8 mph - N/A   Clear
9:52 PM 39.9 °F - 32.0 °F 73% 29.86 in 10.0 mi Calm Calm - N/A   Clear
10:52 PM 39.0 °F - 33.1 °F 79% 29.86 in 10.0 mi Calm Calm - N/A   Clear
11:52 PM 37.9 °F - 33.1 °F 83% 29.85 in 10.0 mi Calm Calm - N/A   Partly Cloudy